User: anonymous   Login
Location: Melbourne
(37.8170°S, 144.9670°E)
Time: 12:36:05
(UTC+10:00)
Language:

ADEOS Rocket - Orbit

View from above orbital plane
View from above orbital plane
View from above satellite
View from above satellite

Ground track
Ground track

The orbit data is extracted from the following two-line orbital elements,

1 24279U 96046C   16206.90065147 +.00000005 +00000-0 +49691-4 0  9994
2 24279 098.7044 186.0647 0301008 043.5204 346.9024 13.47054738979915
Epoch (UTC): 24 July 2016 21:36:56
Eccentricity: 0.0301008
inclination: 98.7044°
perigee height: 858 km
apogee height: 1308 km
right ascension of ascending node: 186.0647°
argument of perigee: 43.5204°
revolutions per day: 13.47054738
mean anomaly at epoch: 346.9024°
orbit number at epoch: 97991

The dashed part of the orbit path shows where the satellite is in the earth's shadow,  

DLR